GSAT0202 (GALILEO 6) (40129 NORAD) Tracking and Keplerian Element Data

This shows tracking and keplerian element data for the satellite.

Feedback or suggestion? Click here.




ElementValue
Catalog40129
NameGSAT0202 (GALILEO 6)
Epoch Orbit6674
Epoch Day158.56590474
Epoch Year2024
RAAN302.567
Inclination49.6884
Eccentricity0.1609985
Argument of Perigee151.6285
Mean Anonmoly218.1869
Mean Motion1.8552008
Decay Rate-1E-06
L11 40129U 14050B 24158.56590474 -.00000100 00000+0 00000+0 0 9996
L22 40129 49.6884 302.5670 1609985 151.6285 218.1869 1.85520080 66743



Live tracking and technical data element details for GSAT0202 (GALILEO 6) (NORAD 40129). GSAT0202 (GALILEO 6) can be tracked NOW for your location showing map with azimuth and elevation plus other details from your city location.







IsCatalogInMostPopularTable: catalog: 40129, numindb: 619
Update: records affected: 1



GetName: 40129 GSAT0202 (GALILEO 6)

Hit Count: updated at: Mon, 17 Jun 2024 23:35:36 GMT